Sault Ste Marie, MI

1:29 PM EDT on August 18, 2017 (GMT -0400)
Sault Ste Marie Municipal / Sanderson Field

Weather History for KANJ - June, 2014

Change the Weather History Date:

Monday, June 30, 2014

  Actual Average Record
Temperature  
Mean Temperature 73 °F 64 °F  
Max Temperature 83 °F 75 °F 93 °F (1927)
Min Temperature 62 °F 52 °F 36 °F (1992)
Degree Days  
Heating Degree Days 0 4  
Month to date heating degree days 109 181  
Since 1 June heating degree days 109 180  
Since 1 July heating degree days 9726 8663  
Cooling Degree Days 8 2  
Month to date cooling degree days 37 30  
Year to date cooling degree days 39 35  
Since 1 June cooling degree days 37 30  
Growing Degree Days 22 (Base 50)    
Moisture  
Dew Point 65 °F    
Average Humidity 76    
Maximum Humidity 93    
Minimum Humidity 58    
Precipitation  
Precipitation 0.02 in 0.08 in 2.00 in (1956)
Month to date precipitation 2.92 2.70  
Year to date precipitation 14.96 13.14  
Sea Level Pressure  
Sea Level Pressure 29.68 in    
Wind  
Wind Speed 11 mph (SSW)    
Max Wind Speed 23 mph    
Max Gust Speed 29 mph    
Visibility 10 miles    
Events      
T = Trace of Precipitation, MM = Missing Value Source: NWS Daily Summary

Daily Weather History Graph

Daily Weather History Graph

Search for Another Location

Airport or City:

Trip Planner

Search our weather history database for the weather conditions in past years. The results will help you decide how hot, cold, wet, or windy it might be!

Date:

Astronomy

Jun. 30, 2014 Rise Set
Actual Time 5:48 AM EDT 9:34 PM EDT
Civil Twilight 5:09 AM EDT 10:12 PM EDT
Nautical Twilight 4:16 AM EDT 11:05 PM EDT
Astronomical Twilight 3:01 AM EDT 12:19 AM EDT
Moon 9:12 AM EDT (6/30) 11:12 PM EDT (6/30)
Length of Visible Light 17h 03m
Length of Day
15h 45m
Waxing Crescent, 10% of the Moon is Illuminated
Jun 30
Waxing Crescent
Jul 5
First Quarter
Jul 12
Full
Jul 18
Last Quarter
Jul 26
New

Hourly Weather History & Observations

Time (EDT) Temp. Heat Index Dew Point Humidity Pressure Visibility Wind Dir Wind Speed Gust Speed Precip Events Conditions
12:55 AM 64.9 °F - 62.1 °F 90% 29.78 in 10.0 mi East 4.6 mph - N/A   Scattered Clouds
1:55 AM 63.0 °F - 60.1 °F 90% 29.78 in 10.0 mi ENE 4.6 mph - N/A   Clear
2:55 AM 63.0 °F - 61.0 °F 93% 29.76 in 10.0 mi NE 3.5 mph - N/A   Clear
3:55 AM 66.0 °F - 63.0 °F 90% 29.77 in 10.0 mi SSW 9.2 mph - N/A   Clear
4:55 AM 66.9 °F - 64.0 °F 90% 29.76 in 10.0 mi SSW 6.9 mph - N/A   Scattered Clouds
5:55 AM 66.9 °F - 64.0 °F 90% 29.74 in 10.0 mi WSW 3.5 mph - N/A   Clear
6:55 AM 68.0 °F - 64.0 °F 87% 29.77 in 10.0 mi SSW 12.7 mph 19.6 mph N/A   Scattered Clouds
7:55 AM 68.0 °F - 64.0 °F 87% 29.75 in 10.0 mi South 4.6 mph - 0.02 in   Scattered Clouds
8:55 AM 71.1 °F - 64.0 °F 78% 29.71 in 10.0 mi SSW 5.8 mph - N/A   Partly Cloudy
9:55 AM 73.9 °F - 64.0 °F 71% 29.70 in 10.0 mi SSW 9.2 mph - N/A   Scattered Clouds
10:55 AM 75.9 °F - 64.0 °F 67% 29.70 in 10.0 mi South 18.4 mph 27.6 mph N/A   Overcast
11:08 AM 75.9 °F - 64.9 °F 69% 29.71 in 10.0 mi South 15.0 mph 23.0 mph N/A   Overcast
11:55 AM 77.0 °F - 64.9 °F 66% 29.68 in 10.0 mi SSW 13.8 mph - N/A   Scattered Clouds
12:55 PM 79.0 °F - 64.9 °F 62% 29.68 in 10.0 mi SW 13.8 mph 19.6 mph N/A   Scattered Clouds
1:14 PM 79.0 °F - 64.9 °F 62% 29.69 in 10.0 mi SSW 18.4 mph 24.2 mph N/A   Mostly Cloudy
1:21 PM 80.1 °F 82.1 °F 66.0 °F 62% 29.69 in 10.0 mi SW 17.3 mph 21.9 mph N/A   Mostly Cloudy
1:55 PM 79.0 °F - 64.9 °F 62% 29.68 in 10.0 mi SW 16.1 mph 24.2 mph N/A   Partly Cloudy
2:55 PM 80.1 °F 82.1 °F 66.0 °F 62% 29.65 in 10.0 mi SSW 15.0 mph 24.2 mph N/A   Clear
3:55 PM 81.0 °F 83.0 °F 66.0 °F 60% 29.64 in 10.0 mi SSW 18.4 mph 27.6 mph N/A   Clear
4:55 PM 82.0 °F 84.1 °F 66.0 °F 58% 29.61 in 10.0 mi SSW 17.3 mph 25.3 mph N/A   Clear
5:55 PM 80.1 °F 82.1 °F 66.0 °F 62% 29.60 in 10.0 mi SSW 17.3 mph 24.2 mph N/A   Partly Cloudy
6:55 PM 78.1 °F - 66.9 °F 68% 29.60 in 10.0 mi SSW 16.1 mph 23.0 mph N/A   Clear
7:55 PM 77.0 °F - 66.9 °F 71% 29.61 in 10.0 mi SW 13.8 mph 19.6 mph N/A   Partly Cloudy
8:55 PM 75.9 °F - 68.0 °F 76% 29.57 in 10.0 mi SSW 12.7 mph 19.6 mph N/A   Scattered Clouds
9:55 PM 75.0 °F - 66.9 °F 76% 29.57 in 10.0 mi SSW 16.1 mph - N/A   Scattered Clouds
10:55 PM 73.9 °F - 66.9 °F 79% 29.56 in 10.0 mi SW 6.9 mph - N/A   Partly Cloudy
11:55 PM 73.0 °F - 66.9 °F 81% 29.55 in 10.0 mi Calm Calm - N/A   Partly Cloudy